Starlink 32897

operational
NORAD ID: 62967 Int'l Des: 2025-029 Owner: SPXS Country: US Constellation: starlink
LEOCIRCULAR

Starlink 32897について

説明を読み込み中...

リアルタイム位置

3D地球を読み込み中...

次回通過

高度履歴

Altitude vs Time

uPlot chart will show altitude changes over time

軌道要素

1 62967U 25029V 25259.58888786 .00034903 00000-0 11850-2 0 9995
2 62967 53.1596 321.0181 0000530 334.0108 26.0866 15.30201483 34668
Epoch: Sep 16, 2025 • Age: 38 hours

現在のステータス

高度 481.6 km
速度 7.63 km/s
衛星直下点 53.31°N, 15.62°W
打ち上げ日 Feb 11, 2025
運用期間 0.5 years
タイプ internet

技術仕様

分類 Payload
質量 730.00 kg
乾燥質量 700.00 kg
総質量 730.00 kg
長さ 0.30 m
直径 4.10 m
スパン 29.00 m
形状 Box + pan
製造者 SPXS
バスタイプ Starlink V2M
フェーズステータス In Orbit
所有者/国 SPXS/US

大規模コンステレーション

Loading constellations...